EW1734 Weather Reports


Display with metric or nautical units.
time (UTC)temp
F
wind
direction
speed
MPH
gust
MPH
rain 1hr
in
rain 24hr
in
rain mn
in
humidity
%
barometer
mb
20260504050433 56 293 0.0 1.0 0.00 0.02 0.02 78 1015.0
20260504045930 56 50 0.0 1.0 0.00 0.02 0.02 78 1014.8
20260504045425 56 44 0.0 2.0 0.00 0.02 0.02 78 1014.9
20260504044922 56 59 0.0 2.0 0.00 0.02 0.02 78 1014.6
20260504044420 56 130 0.0 1.0 0.00 0.02 0.02 78 1014.7
20260504043917 57 31 4.0 4.0 0.00 0.02 0.02 78 1014.6
20260504043414 57 62 0.0 2.0 0.00 0.02 0.02 78 1014.6
20260504042911 57 103 0.0 2.0 0.00 0.02 0.02 79 1014.5
20260504042408 57 309 0.0 2.0 0.00 0.02 0.02 79 1014.5
20260504041904 57 50 0.0 3.0 0.00 0.02 0.02 79 1014.7
20260504041400 57 50 0.0 1.0 0.00 0.02 0.02 78 1014.6
20260504040856 57 142 0.0 2.0 0.00 0.02 0.02 78 1014.3
20260504040354 57 97 0.0 2.0 0.00 0.02 0.02 78 1014.4
20260504035850 57 156 0.0 2.0 0.00 0.02 0.02 79 1014.2
20260504035348 57 79 2.0 3.0 0.00 0.02 0.02 78 1014.2
20260504034844 57 32 0.0 2.0 0.00 0.02 0.02 78 1014.0
20260504034342 57 32 1.0 3.0 0.00 0.02 0.02 78 1013.8
20260504033838 57 35 1.0 2.0 0.00 0.02 0.02 78 1013.9
20260504033337 57 38 0.0 5.0 0.00 0.02 0.02 78 1014.1
20260504032833 57 35 4.0 7.0 0.00 0.02 0.02 78 1013.8
20260504032330 57 14 0.0 4.0 0.00 0.02 0.02 77 1013.9
20260504031827 57 56 0.0 3.0 0.00 0.02 0.02 77 1013.5
20260504031324 57 329 0.0 3.0 0.00 0.02 0.02 76 1013.7
20260504030820 57 89 0.0 3.0 0.00 0.02 0.02 75 1013.8
20260504030318 57 148 1.0 4.0 0.00 0.02 0.02 75 1013.5
20260504025813 57 312 4.0 6.0 0.00 0.02 0.02 74 1013.7
20260504025311 57 302 2.0 4.0 0.00 0.02 0.02 74 1013.7
20260504024807 57 358 2.0 5.0 0.00 0.02 0.02 75 1013.6
20260504024304 58 40 3.0 4.0 0.00 0.02 0.02 74 1013.3
20260504023801 58 86 2.0 4.0 0.00 0.02 0.02 73 1013.5
20260504023257 58 70 2.0 3.0 0.00 0.02 0.02 72 1013.5
20260504022753 58 333 0.0 3.0 0.00 0.02 0.02 71 1013.2
20260504022249 59 19 2.0 3.0 0.00 0.02 0.02 70 1013.2
20260504021746 59 327 2.0 4.0 0.00 0.02 0.02 68 1013.2
20260504021244 59 11 3.0 6.0 0.00 0.02 0.02 67 1013.0
20260504020741 60 19 1.0 4.0 0.00 0.02 0.02 67 1013.1
20260504020237 60 213 0.0 4.0 0.00 0.02 0.02 67 1013.3
20260504015733 60 35 2.0 2.0 0.00 0.02 0.02 67 1013.1
20260504015230 61 209 2.0 3.0 0.00 0.02 0.02 66 1013.2
20260504014726 61 24 2.0 3.0 0.00 0.02 0.02 66 1012.9
20260504014223 62 28 1.0 2.0 0.00 0.02 0.02 66 1013.0
20260504013720 62 27 1.0 2.0 0.00 0.02 0.02 65 1012.7
20260504013218 62 12 3.0 3.0 0.00 0.02 0.02 65 1012.9
20260504012714 63 325 1.0 3.0 0.00 0.02 0.02 64 1012.7
20260504012212 63 34 0.0 2.0 0.00 0.02 0.02 64 1012.9
20260504011709 63 69 1.0 1.0 0.00 0.02 0.02 65 1012.6
20260504011205 63 33 2.0 3.0 0.00 0.02 0.02 64 1012.9
20260504010701 63 8 2.0 2.0 0.00 0.02 0.02 63 1013.0
20260504010157 64 57 1.0 1.0 0.00 0.02 0.02 64 1012.6
20260504005654 63 89 0.0 2.0 0.00 0.02 0.02 64 1012.5
20260504005151 64 183 1.0 2.0 0.00 0.02 0.02 63 1012.5
20260504004649 64 347 0.0 1.0 0.00 0.02 0.02 62 1012.5
20260504004146 63 29 0.0 2.0 0.00 0.02 0.02 63 1012.4
20260504003642 63 254 2.0 3.0 0.00 0.02 0.02 63 1012.6
20260504003139 64 294 2.0 3.0 0.00 0.02 0.02 61 1012.6
20260504002636 64 178 1.0 3.0 0.00 0.02 0.02 57 1012.5
20260504002133 64 186 3.0 4.0 0.00 0.02 0.02 58 1012.5
20260504001631 64 203 0.0 2.0 0.00 0.02 0.02 59 1012.4
20260504001126 64 286 3.0 3.0 0.00 0.02 0.02 58 1012.5
20260504000619 64 182 3.0 6.0 0.00 0.02 0.02 57 1012.4
20260504000116 64 188 1.0 2.0 0.00 0.02 0.02 57 1012.4
20260503235614 64 169 4.0 4.0 0.00 0.02 0.02 62 1012.1
20260503235111 64 287 0.0 3.0 0.00 0.02 0.02 62 1012.3
20260503234609 64 0 3.0 4.0 0.00 0.02 0.02 59 1012.6
20260503234106 65 178 3.0 4.0 0.00 0.02 0.02 56 1012.4
20260503233603 65 140 2.0 2.0 0.00 0.02 0.02 59 1012.3
20260503233058 66 256 0.0 2.0 0.00 0.02 0.02 60 1012.5
20260503232555 66 168 0.0 2.0 0.00 0.02 0.02 60 1012.6
20260503232052 66 343 2.0 2.0 0.00 0.02 0.02 61 1012.7
20260503231550 66 143 3.0 4.0 0.00 0.02 0.02 59 1012.9
20260503231047 67 69 0.0 3.0 0.00 0.02 0.02 60 1012.6
20260503230544 67 317 3.0 4.0 0.00 0.02 0.02 59 1013.0
20260503230042 66 291 1.0 3.0 0.00 0.02 0.02 61 1012.6
20260503225538 66 204 2.0 3.0 0.00 0.02 0.02 61 1012.7
20260503225033 65 322 0.0 3.0 0.00 0.02 0.02 63 1012.7
20260503224531 65 285 2.0 4.0 0.00 0.02 0.02 64 1013.0
20260503224029 64 221 1.0 4.0 0.00 0.02 0.02 64 1013.2
20260503223527 64 242 2.0 3.0 0.00 0.02 0.02 65 1013.1
20260503223022 64 49 2.0 2.0 0.00 0.02 0.02 66 1013.3
20260503222520 64 217 0.0 3.0 0.00 0.02 0.02 66 1013.4
20260503222018 64 16 3.0 3.0 0.00 0.02 0.02 65 1013.4
20260503221516 64 10 1.0 3.0 0.00 0.02 0.02 67 1013.5
20260503221013 63 23 0.0 3.0 0.00 0.02 0.02 67 1013.5
20260503220509 63 70 1.0 2.0 0.00 0.02 0.02 68 1013.6
20260503220006 63 214 0.0 2.0 0.00 0.02 0.02 68 1013.6
20260503215503 62 97 2.0 2.0 0.00 0.02 0.02 69 1013.8
20260503215000 63 4 0.0 2.0 0.00 0.02 0.02 69 1013.8
20260503214458 62 162 2.0 3.0 0.00 0.02 0.02 69 1013.7
20260503213955 62 166 0.0 2.0 0.00 0.02 0.02 68 1013.7
20260503213453 62 309 0.0 2.0 0.00 0.02 0.02 69 1013.7
20260503212949 62 233 2.0 2.0 0.00 0.02 0.02 69 1013.6
20260503212447 62 89 0.0 3.0 0.00 0.02 0.02 70 1013.6
20260503211944 62 89 0.0 2.0 0.00 0.02 0.02 70 1013.8
20260503211441 62 193 1.0 3.0 0.00 0.02 0.02 65 1013.8
20260503210936 62 192 2.0 4.0 0.00 0.02 0.02 66 1013.6
20260503210433 62 195 3.0 6.0 0.00 0.02 0.02 66 1013.7
20260503205933 62 153 4.0 5.0 0.00 0.02 0.02 65 1013.8
20260503205431 62 192 3.0 8.0 0.00 0.02 0.02 65 1013.8
20260503204927 62 157 2.0 5.0 0.00 0.02 0.02 66 1013.7
20260503204425 62 187 1.0 3.0 0.00 0.02 0.02 67 1013.8
20260503203921 63 309 1.0 2.0 0.00 0.02 0.02 68 1013.6
20260503203419 62 192 2.0 3.0 0.00 0.02 0.02 68 1013.7
20260503202915 62 323 2.0 2.0 0.00 0.02 0.02 68 1013.7
20260503202414 62 251 1.0 2.0 0.00 0.02 0.02 69 1013.7
20260503201912 62 212 1.0 2.0 0.00 0.02 0.02 69 1013.7
20260503201409 61 184 2.0 5.0 0.00 0.02 0.02 69 1013.7
20260503200906 62 201 2.0 7.0 0.00 0.02 0.02 69 1013.8
20260503200402 62 114 2.0 3.0 0.00 0.02 0.02 70 1013.8
20260503195859 62 64 1.0 4.0 0.00 0.02 0.02 70 1013.9
20260503195355 61 191 2.0 6.0 0.00 0.02 0.02 71 1014.1
20260503194853 62 138 0.0 4.0 0.00 0.02 0.02 69 1014.2
20260503194349 62 183 0.0 2.0 0.00 0.02 0.02 70 1014.0
20260503193845 61 168 1.0 4.0 0.00 0.02 0.02 70 1014.0
20260503193341 62 185 4.0 4.0 0.00 0.02 0.02 70 1014.2
20260503192837 62 175 2.0 3.0 0.00 0.02 0.02 70 1014.3
20260503192333 61 137 4.0 4.0 0.00 0.02 0.02 71 1014.2
20260503191829 61 116 3.0 5.0 0.00 0.02 0.02 72 1014.1
20260503191326 61 112 2.0 4.0 0.00 0.02 0.02 72 1014.2
20260503190823 61 105 4.0 4.0 0.00 0.02 0.02 73 1014.3
20260503190321 60 188 6.0 6.0 0.00 0.02 0.02 73 1014.4
20260503185818 60 173 2.0 6.0 0.00 0.02 0.02 73 1014.4
20260503185314 60 185 2.0 4.0 0.00 0.02 0.02 73 1014.3
20260503184813 61 162 2.0 3.0 0.00 0.02 0.02 73 1014.2
20260503184310 61 60 0.0 2.0 0.00 0.02 0.02 74 1014.4
20260503183805 60 114 0.0 2.0 0.00 0.02 0.02 75 1014.4
20260503183303 59 139 2.0 5.0 0.00 0.02 0.02 76 1014.4
20260503182800 60 311 0.0 3.0 0.00 0.02 0.02 77 1014.4
20260503182259 60 6 0.0 3.0 0.00 0.02 0.02 77 1014.5
20260503181755 59 107 0.0 1.0 0.00 0.02 0.02 77 1014.6
20260503181253 59 292 0.0 2.0 0.00 0.02 0.02 81 1014.7
20260503180749 59 103 0.0 2.0 0.00 0.02 0.02 83 1014.6
20260503180247 57 160 0.0 2.0 0.00 0.02 0.02 84 1014.8
20260503175743 57 143 2.0 2.0 0.00 0.02 0.02 86 1014.7
20260503175242 57 167 0.0 2.0 0.00 0.02 0.02 88 1014.7
20260503174737 56 192 2.0 4.0 0.00 0.02 0.02 89 1014.8
20260503174236 55 154 2.0 4.0 0.00 0.02 0.02 91 1015.1
20260503173730 56 194 2.0 3.0 0.00 0.02 0.02 92 1015.0
20260503173226 55 130 2.0 3.0 0.00 0.02 0.02 93 1014.9
20260503172723 55 291 0.0 3.0 0.00 0.02 0.02 93 1014.9
20260503172220 55 146 1.0 2.0 0.00 0.02 0.02 94 1014.8
20260503171717 55 89 0.0 3.0 0.00 0.02 0.02 94 1014.9
20260503171214 55 198 2.0 4.0 0.00 0.02 0.02 94 1014.6
20260503170711 55 226 0.0 4.0 0.02 0.02 0.02 95 1014.7
20260503170208 55 312 2.0 5.0 0.02 0.02 0.02 95 1014.6
20260503160129 55 179 2.0 5.0 0.00 0.00 0.00 94 1014.1
20260503150559 57 173 3.0 4.0 0.00 0.00 0.00 87 1013.7
20260503130949 57 182 2.0 4.0 0.00 0.00 0.00 81 1012.3
20260503130447 57 57 2.0 2.0 0.00 0.00 0.00 81 1012.4
20260503110337 57 133 2.0 5.0 0.00 0.00 0.00 86 1012.7
20260503090223 57 74 6.0 6.0 0.00 0.00 0.00 88 1013.2
20260503081151 57 115 1.0 3.0 0.00 0.00 0.00 90 1013.2
20260503080647 57 137 2.0 3.0 0.00 0.00 0.00 90 1013.3
20260503080144 57 136 3.0 6.0 0.00 0.00 0.00 90 1013.0
20260503072621 58 76 4.0 5.0 0.00 0.00 0.00 89 1012.9
20260503072117 58 126 2.0 4.0 0.00 0.00 0.00 89 1012.9
20260503071614 58 141 2.0 3.0 0.00 0.00 0.00 89 1012.6
20260503071111 58 65 2.0 3.0 0.00 0.00 0.00 89 1012.5
20260503070608 58 108 3.0 3.0 0.00 0.00 0.00 89 1012.5
20260503070106 58 117 0.0 3.0 0.00 0.00 0.00 89 1012.7